sat.trackr.live / text

‹ back to catalog

STARLINK-3723

NORAD 52138 · 2022-029BC

PAYLOAD ACTIVE UNKNOWN

§ Identity

Operator
Country
US
Launch date
2022-03-19
Launch site
AFETR
Launch vehicle
Mass (kg)
RCS (m²)

Purposes: comms

External: N2YO · Heavens-Above · Gunter

§ Orbital elements

Epoch: 2026-05-25T02:26:05.006112Z

Period
95.44 min
Inclination
53.2148°
Eccentricity
0.0001436
Mean motion
15.08840340 rev/d
Perigee alt
538.7 km
Apogee alt
540.7 km
Semi-major
6,917.9 km
B*
3.6631e-5
RAAN
86.0938°
Arg perigee
74.9970°
Mean anomaly
285.1181°
Rev number
23,247

§ Raw data

STARLINK-37231 52138U 22029BC  26145.10144683  .00000295  00000+0  36631-4 0  99972 52138  53.2148  86.0938 0001436  74.9970 285.1181 15.08840340232475

JSON: /api/v1/satellites/52138 · /tle

For live sub-satellite position, see the globe view (requires WebGL).

§ Visibility from observer

Set your observer location to see the next 7 days of passes ≥ 10°. The values pass through the URL so the page stays shareable.

No JS? Fill the form by hand. The geolocation button needs JavaScript.